Volver al catálogo

SL-14 DEB

ActivoPO
NORAD 47085·DEBRIS·🇷🇺 Russia

Lanzado Aug 15, 1991 desde Plesetsk Cosmodrome

Loading…

Próximos Pases (próximas 24 horas)

TLE

ActualizadoSource: Space-Track

Época: Sep 14, 2026, 02:19 UTC

1 47085U 91056DK  26257.09674046 -.00000071  00000-0 -16318-3 0  9995
2 47085  82.5610  28.3282 0082797  33.7523 326.8842 13.35166584285593

Sigue SL-14 DEB en tiempo real con AllMySat

Download on the App Store